| time (UTC) | temp F | wind direction | speed MPH | gust MPH | rain 1hr in | rain 24hr in | rain mn in | humidity % | barometer mb |
| 20260508122028 | 45 | 229 | 0.0 | 3.0 | 0.00 | 0.38 | 0.01 | 99 | 1000.8 |
| 20260508121036 | 45 | 204 | 1.0 | 3.0 | 0.00 | 0.38 | 0.01 | 99 | 1000.7 |
| 20260508120041 | 45 | 243 | 0.0 | 3.0 | 0.00 | 0.38 | 0.01 | 99 | 1000.8 |
| 20260508115026 | 45 | 214 | 0.0 | 2.0 | 0.00 | 0.38 | 0.01 | 99 | 1000.7 |
| 20260508114130 | 44 | 214 | 1.0 | 3.0 | 0.00 | 0.38 | 0.01 | 99 | 1000.6 |
| 20260508113019 | 45 | 211 | 1.0 | 3.0 | 0.00 | 0.38 | 0.01 | 99 | 1000.6 |
| 20260508112125 | 44 | 230 | 1.0 | 2.0 | 0.00 | 0.38 | 0.01 | 99 | 1000.5 |
| 20260508111041 | 44 | 0.0 | 0.0 | 0.00 | 0.38 | 0.01 | 99 | 1000.5 | |
| 20260508110021 | 44 | 171 | 3.0 | 3.0 | 0.00 | 0.38 | 0.01 | 99 | 1000.6 |
| 20260508105233 | 44 | 175 | 3.0 | 5.0 | 0.00 | 0.38 | 0.01 | 99 | 1000.8 |
| 20260508104154 | 44 | 199 | 2.0 | 5.0 | 0.00 | 0.39 | 0.01 | 99 | 1000.8 |
| 20260508103232 | 44 | 199 | 3.0 | 7.0 | 0.00 | 0.39 | 0.01 | 99 | 1000.6 |
| 20260508102033 | 43 | 181 | 2.0 | 7.0 | 0.00 | 0.39 | 0.01 | 99 | 1000.5 |
| 20260508101044 | 42 | 174 | 1.0 | 5.0 | 0.00 | 0.39 | 0.01 | 99 | 1000.6 |
| 20260508100055 | 42 | 0.0 | 0.0 | 0.00 | 0.39 | 0.01 | 99 | 1000.2 | |
| 20260508095106 | 41 | 0.0 | 0.0 | 0.00 | 0.39 | 0.01 | 98 | 1000.1 | |
| 20260508094018 | 41 | 166 | 1.0 | 2.0 | 0.00 | 0.39 | 0.01 | 98 | 1000.1 |
| 20260508093129 | 41 | 170 | 0.0 | 2.0 | 0.00 | 0.39 | 0.01 | 98 | 1000.2 |
| 20260508092107 | 40 | 181 | 1.0 | 5.0 | 0.00 | 0.39 | 0.01 | 98 | 1000.1 |
| 20260508091049 | 40 | 34 | 1.0 | 2.0 | 0.00 | 0.39 | 0.01 | 98 | 1000.3 |
| 20260508090029 | 39 | 0.0 | 0.0 | 0.00 | 0.39 | 0.01 | 98 | 1000.2 | |
| 20260508085040 | 39 | 323 | 0.0 | 2.0 | 0.00 | 0.39 | 0.01 | 98 | 1000.0 |
| 20260508084040 | 39 | 0.0 | 0.0 | 0.00 | 0.39 | 0.01 | 98 | 1000.1 | |
| 20260508083105 | 39 | 23 | 0.0 | 2.0 | 0.00 | 0.39 | 0.01 | 98 | 1000.0 |
| 20260508082107 | 40 | 11 | 1.0 | 3.0 | 0.00 | 0.39 | 0.01 | 98 | 1000.0 |
| 20260508081053 | 40 | 0.0 | 0.0 | 0.00 | 0.39 | 0.01 | 98 | 1000.2 | |
| 20260508080032 | 40 | 0.0 | 0.0 | 0.00 | 0.39 | 0.01 | 98 | 1000.4 | |
| 20260508075044 | 41 | 206 | 1.0 | 2.0 | 0.00 | 0.39 | 0.01 | 98 | 1000.5 |
| 20260508074128 | 42 | 0.0 | 0.0 | 0.00 | 0.39 | 0.01 | 98 | 1000.5 | |
| 20260508073105 | 42 | 240 | 0.0 | 2.0 | 0.00 | 0.39 | 0.01 | 98 | 1000.3 |
| 20260508072133 | 42 | 0.0 | 0.0 | 0.00 | 0.39 | 0.01 | 98 | 1000.2 | |
| 20260508071045 | 42 | 312 | 1.0 | 3.0 | 0.00 | 0.39 | 0.01 | 98 | 1000.2 |
| 20260508070036 | 41 | 319 | 1.0 | 2.0 | 0.01 | 0.39 | 0.01 | 98 | 1000.1 |
| 20260508065118 | 42 | 0.0 | 0.0 | 0.01 | 0.39 | 0.01 | 98 | 1000.2 | |
| 20260508064047 | 43 | 246 | 0.0 | 2.0 | 0.01 | 0.39 | 0.01 | 98 | 1000.3 |
| 20260508063130 | 41 | 0.0 | 0.0 | 0.01 | 0.40 | 0.01 | 97 | 1000.4 | |
| 20260508062018 | 42 | 336 | 0.0 | 2.0 | 0.01 | 0.40 | 0.01 | 97 | 1000.4 |
| 20260508061029 | 43 | 0.0 | 0.0 | 0.01 | 0.40 | 0.01 | 97 | 1000.4 | |
| 20260508060039 | 43 | 12 | 1.0 | 3.0 | 0.00 | 0.39 | 0.00 | 97 | 1000.0 |
| 20260508055020 | 42 | 45 | 2.0 | 3.0 | 0.00 | 0.39 | 0.00 | 97 | 1000.2 |
| 20260508054030 | 43 | 28 | 2.0 | 3.0 | 0.00 | 0.39 | 0.00 | 97 | 1000.3 |
| 20260508053052 | 44 | 0.0 | 0.0 | 0.00 | 0.39 | 0.00 | 97 | 1000.7 | |
| 20260508052022 | 44 | 0.0 | 0.0 | 0.00 | 0.39 | 0.00 | 97 | 1000.4 | |
| 20260508051058 | 44 | 0.0 | 0.0 | 0.00 | 0.39 | 0.00 | 97 | 1000.7 | |
| 20260508050104 | 44 | 0.0 | 0.0 | 0.00 | 0.39 | 0.00 | 97 | 1000.6 | |
| 20260508045025 | 44 | 339 | 0.0 | 2.0 | 0.00 | 0.39 | 0.00 | 97 | 1000.7 |
| 20260508044111 | 44 | 0.0 | 0.0 | 0.00 | 0.39 | 0.00 | 97 | 1000.6 | |
| 20260508043045 | 45 | 241 | 0.0 | 2.0 | 0.00 | 0.39 | 0.00 | 97 | 1000.2 |
| 20260508042132 | 45 | 245 | 0.0 | 3.0 | 0.00 | 0.39 | 0.00 | 97 | 1000.2 |
| 20260508041037 | 45 | 237 | 1.0 | 3.0 | 0.00 | 0.39 | 0.00 | 97 | 1000.3 |
| 20260508040017 | 46 | 243 | 2.0 | 3.0 | 0.00 | 0.39 | 0.00 | 97 | 1000.6 |
| 20260508035100 | 46 | 233 | 2.0 | 3.0 | 0.00 | 0.39 | 0.00 | 97 | 1000.7 |
| 20260508034039 | 46 | 244 | 2.0 | 3.0 | 0.00 | 0.39 | 0.00 | 97 | 1000.6 |
| 20260508033019 | 46 | 236 | 0.0 | 3.0 | 0.00 | 0.39 | 0.00 | 97 | 1000.7 |
| 20260508032030 | 46 | 256 | 1.0 | 5.0 | 0.00 | 0.39 | 0.00 | 97 | 1000.9 |
| 20260508031041 | 46 | 235 | 1.0 | 3.0 | 0.00 | 0.39 | 0.00 | 97 | 1001.0 |
| 20260508030021 | 47 | 239 | 1.0 | 2.0 | 0.00 | 0.39 | 0.00 | 97 | 1000.9 |
| 20260508025032 | 47 | 244 | 1.0 | 3.0 | 0.00 | 0.39 | 0.39 | 97 | 1000.9 |
| 20260508024043 | 47 | 217 | 0.0 | 2.0 | 0.00 | 0.39 | 0.39 | 97 | 1000.8 |
| 20260508023143 | 48 | 0.0 | 0.0 | 0.00 | 0.39 | 0.39 | 97 | 1000.8 | |
| 20260508022034 | 48 | 207 | 0.0 | 2.0 | 0.00 | 0.39 | 0.39 | 97 | 1000.9 |
| 20260508021047 | 48 | 0.0 | 0.0 | 0.00 | 0.39 | 0.39 | 96 | 1001.0 | |
| 20260508020025 | 48 | 216 | 1.0 | 2.0 | 0.00 | 0.39 | 0.39 | 96 | 1001.0 |
| 20260508015037 | 49 | 0.0 | 0.0 | 0.00 | 0.39 | 0.39 | 96 | 1001.0 | |
| 20260508014019 | 49 | 0.0 | 0.0 | 0.00 | 0.39 | 0.39 | 96 | 1001.0 | |
| 20260508013027 | 49 | 0.0 | 0.0 | 0.00 | 0.39 | 0.39 | 96 | 1000.8 | |
| 20260508012058 | 49 | 0.0 | 0.0 | 0.00 | 0.39 | 0.39 | 96 | 1000.7 | |
| 20260508011018 | 50 | 348 | 1.0 | 2.0 | 0.00 | 0.39 | 0.39 | 96 | 1000.7 |
| 20260508010029 | 50 | 0.0 | 0.0 | 0.00 | 0.39 | 0.39 | 95 | 1000.6 | |
| 20260508005041 | 50 | 0.0 | 0.0 | 0.00 | 0.39 | 0.39 | 95 | 1000.8 | |
| 20260508004021 | 50 | 0.0 | 0.0 | 0.00 | 0.39 | 0.39 | 95 | 1000.7 | |
| 20260508003031 | 50 | 336 | 1.0 | 3.0 | 0.00 | 0.39 | 0.39 | 95 | 1000.7 |
| 20260508002042 | 51 | 327 | 2.0 | 3.0 | 0.00 | 0.39 | 0.39 | 95 | 1000.7 |
| 20260508001022 | 51 | 335 | 2.0 | 3.0 | 0.00 | 0.39 | 0.39 | 95 | 1000.5 |
| 20260508000033 | 51 | 0.0 | 0.0 | 0.00 | 0.39 | 0.39 | 95 | 1000.3 | |
| 20260507235045 | 51 | 0.0 | 0.0 | 0.00 | 0.39 | 0.39 | 95 | 1000.3 | |
| 20260507234027 | 51 | 0.0 | 0.0 | 0.00 | 0.39 | 0.39 | 95 | 1000.3 | |
| 20260507233055 | 51 | 0.0 | 0.0 | 0.00 | 0.39 | 0.39 | 95 | 1000.2 | |
| 20260507232126 | 51 | 0.0 | 0.0 | 0.00 | 0.39 | 0.39 | 95 | 1000.2 | |
| 20260507231046 | 51 | 0.0 | 0.0 | 0.00 | 0.39 | 0.39 | 95 | 1000.2 | |
| 20260507230037 | 52 | 0.0 | 0.0 | 0.00 | 0.39 | 0.39 | 95 | 1000.1 | |
| 20260507225100 | 52 | 274 | 0.0 | 2.0 | 0.00 | 0.39 | 0.39 | 95 | 1000.2 |
| 20260507224029 | 52 | 0.0 | 0.0 | 0.00 | 0.39 | 0.39 | 95 | 1000.0 | |
| 20260507223059 | 52 | 238 | 0.0 | 2.0 | 0.00 | 0.39 | 0.39 | 96 | 1000.0 |
| 20260507222039 | 52 | 244 | 0.0 | 3.0 | 0.00 | 0.39 | 0.39 | 96 | 1000.0 |
| 20260507221030 | 52 | 245 | 0.0 | 2.0 | 0.00 | 0.39 | 0.39 | 96 | 1000.1 |
| 20260507220041 | 52 | 0.0 | 0.0 | 0.00 | 0.39 | 0.39 | 96 | 1000.0 | |
| 20260507215021 | 52 | 278 | 0.0 | 2.0 | 0.00 | 0.39 | 0.39 | 96 | 999.8 |
| 20260507214032 | 53 | 256 | 0.0 | 3.0 | 0.00 | 0.39 | 0.39 | 96 | 999.9 |
| 20260507213044 | 53 | 249 | 1.0 | 5.0 | 0.00 | 0.39 | 0.39 | 97 | 999.9 |
| 20260507212024 | 53 | 201 | 1.0 | 5.0 | 0.00 | 0.39 | 0.39 | 97 | 999.8 |
| 20260507211034 | 52 | 212 | 2.0 | 5.0 | 0.00 | 0.39 | 0.39 | 97 | 999.8 |
| 20260507210045 | 52 | 207 | 3.0 | 7.0 | 0.00 | 0.39 | 0.39 | 97 | 999.9 |
| 20260507205025 | 52 | 221 | 3.0 | 7.0 | 0.00 | 0.39 | 0.39 | 97 | 999.7 |
| 20260507204108 | 52 | 206 | 2.0 | 7.0 | 0.00 | 0.39 | 0.39 | 97 | 999.6 |
| 20260507203017 | 52 | 230 | 1.0 | 3.0 | 0.00 | 0.39 | 0.39 | 97 | 999.6 |
| 20260507202027 | 52 | 228 | 2.0 | 7.0 | 0.00 | 0.39 | 0.39 | 97 | 999.4 |
| 20260507201039 | 52 | 214 | 1.0 | 5.0 | 0.00 | 0.39 | 0.39 | 97 | 999.3 |
| 20260507200018 | 52 | 211 | 1.0 | 3.0 | 0.00 | 0.39 | 0.39 | 97 | 999.6 |
| 20260507195029 | 51 | 263 | 1.0 | 7.0 | 0.00 | 0.39 | 0.39 | 97 | 999.4 |
| 20260507194100 | 51 | 247 | 1.0 | 7.0 | 0.01 | 0.39 | 0.39 | 97 | 999.3 |
| 20260507193020 | 51 | 217 | 2.0 | 9.0 | 0.01 | 0.39 | 0.39 | 97 | 999.4 |
| 20260507192052 | 51 | 241 | 2.0 | 9.0 | 0.01 | 0.39 | 0.39 | 97 | 999.6 |
| 20260507191043 | 51 | 218 | 4.0 | 10.0 | 0.01 | 0.39 | 0.39 | 97 | 999.4 |
| 20260507190022 | 52 | 215 | 3.0 | 5.0 | 0.01 | 0.39 | 0.39 | 97 | 999.4 |
| 20260507185121 | 52 | 207 | 2.0 | 7.0 | 0.02 | 0.39 | 0.39 | 97 | 999.3 |
| 20260507184119 | 52 | 215 | 2.0 | 9.0 | 0.02 | 0.38 | 0.38 | 97 | 999.3 |
| 20260507183025 | 51 | 216 | 3.0 | 7.0 | 0.02 | 0.38 | 0.38 | 97 | 999.6 |
| 20260507182036 | 51 | 223 | 1.0 | 3.0 | 0.03 | 0.38 | 0.38 | 97 | 999.4 |
| 20260507181117 | 51 | 246 | 1.0 | 3.0 | 0.04 | 0.38 | 0.38 | 97 | 999.5 |
| 20260507180047 | 51 | 237 | 1.0 | 5.0 | 0.04 | 0.38 | 0.38 | 97 | 999.0 |
| 20260507175039 | 51 | 230 | 4.0 | 10.0 | 0.04 | 0.37 | 0.37 | 97 | 1000.2 |
| 20260507174039 | 51 | 179 | 12.0 | 21.0 | 0.04 | 0.36 | 0.36 | 97 | 1000.1 |
| 20260507173029 | 51 | 174 | 13.0 | 21.0 | 0.05 | 0.36 | 0.36 | 97 | 999.1 |
| 20260507172039 | 51 | 167 | 7.0 | 10.0 | 0.06 | 0.35 | 0.35 | 97 | 998.8 |
| 20260507171020 | 51 | 161 | 8.0 | 14.0 | 0.07 | 0.34 | 0.34 | 97 | 998.7 |
| 20260507170031 | 51 | 176 | 9.0 | 14.0 | 0.09 | 0.34 | 0.34 | 97 | 999.8 |
| 20260507165121 | 51 | 176 | 9.0 | 14.0 | 0.11 | 0.33 | 0.33 | 97 | 999.9 |
| 20260507164021 | 51 | 178 | 9.0 | 12.0 | 0.13 | 0.32 | 0.32 | 97 | 999.9 |
| 20260507163053 | 52 | 187 | 9.0 | 14.0 | 0.15 | 0.31 | 0.31 | 97 | 1000.1 |
| 20260507162119 | 53 | 169 | 9.0 | 15.0 | 0.16 | 0.29 | 0.29 | 97 | 1000.2 |
| 20260507161055 | 53 | 185 | 6.0 | 10.0 | 0.15 | 0.27 | 0.27 | 97 | 1000.3 |
| 20260507160125 | 53 | 183 | 6.0 | 10.0 | 0.16 | 0.25 | 0.25 | 97 | 1000.1 |
| 20260507155045 | 53 | 186 | 9.0 | 14.0 | 0.15 | 0.22 | 0.22 | 96 | 1000.4 |
| 20260507154046 | 52 | 182 | 9.0 | 15.0 | 0.14 | 0.19 | 0.19 | 96 | 1000.6 |
| 20260507153039 | 52 | 190 | 8.0 | 12.0 | 0.14 | 0.16 | 0.16 | 96 | 1001.0 |
| 20260507152016 | 52 | 206 | 7.0 | 14.0 | 0.11 | 0.13 | 0.13 | 95 | 1001.3 |
| 20260507151047 | 52 | 199 | 8.0 | 15.0 | 0.10 | 0.12 | 0.12 | 95 | 1001.2 |
| 20260507150141 | 53 | 183 | 11.0 | 21.0 | 0.07 | 0.09 | 0.09 | 95 | 1001.6 |
| 20260507145018 | 53 | 179 | 8.0 | 14.0 | 0.05 | 0.07 | 0.07 | 94 | 1001.6 |
| 20260507144133 | 54 | 192 | 10.0 | 15.0 | 0.03 | 0.05 | 0.05 | 93 | 1001.3 |
| 20260507143042 | 54 | 186 | 9.0 | 14.0 | 0.00 | 0.02 | 0.02 | 93 | 1001.4 |
| 20260507142020 | 55 | 188 | 14.0 | 24.0 | 0.00 | 0.02 | 0.02 | 92 | 1001.2 |
| 20260507141032 | 55 | 170 | 14.0 | 21.0 | 0.00 | 0.02 | 0.02 | 92 | 1001.2 |
| 20260507140042 | 54 | 184 | 14.0 | 21.0 | 0.00 | 0.02 | 0.02 | 92 | 1001.3 |
| 20260507135043 | 54 | 171 | 14.0 | 21.0 | 0.00 | 0.02 | 0.02 | 92 | 1001.1 |
| 20260507134034 | 54 | 185 | 18.0 | 29.0 | 0.00 | 0.02 | 0.02 | 92 | 1001.5 |
| 20260507133044 | 54 | 175 | 19.0 | 27.0 | 0.00 | 0.02 | 0.02 | 92 | 1001.8 |
| 20260507132024 | 54 | 193 | 18.0 | 27.0 | 0.00 | 0.02 | 0.02 | 92 | 1001.7 |
| 20260507131106 | 54 | 189 | 21.0 | 34.0 | 0.00 | 0.02 | 0.02 | 92 | 1001.6 |
| 20260507130046 | 54 | 180 | 20.0 | 31.0 | 0.00 | 0.02 | 0.02 | 93 | 1001.8 |
| 20260507125030 | 53 | 179 | 24.0 | 36.0 | 0.00 | 0.02 | 0.02 | 93 | 1001.6 |
| 20260507124117 | 53 | 181 | 17.0 | 27.0 | 0.00 | 0.02 | 0.02 | 93 | 1001.9 |
| 20260507123017 | 53 | 181 | 19.0 | 31.0 | 0.00 | 0.02 | 0.02 | 93 | 1002.2 |